Regional Weather Roundup
Issued by NWS

Home | Current Version | Previous Version | Text Only | Print | Product List | Glossary On
Versions: 1 2 3 4 5 6 7 8 9 10 11 12 13 14 15 16 17 18 19 20 21 22 23 24 25 26 27 28 29 30 31 32 33 34 35 36 37 38 39 40 41 42 43 44 45 46 47 48 49 50
000
ASUS44 KBMX 300510
RWRAL

ALABAMA REGIONAL WEATHER ROUNDUP
NATIONAL WEATHER SERVICE BIRMINGHAM AL
1100 PM CST THU JAN 29 2015

NOTE: "FAIR" INDICATES FEW OR NO CLOUDS BELOW 12,000 FEET
WITH NO SIGNIFICANT WEATHER AND/OR OBSTRUCTIONS TO VISIBILITY.

THE REMARK "TC" DENOTES TEMPERATURE IN DEGREES CELSIUS.

ALZ001>011-014-016>018-020-300600-
NORTH ALABAMA

CITY           SKY/WX    TMP DP  RH WIND       PRES   REMARKS
MUSCLE SHOALS  CLOUDY    44  29  55 N13G22    30.35R
HUNTSVILLE     CLOUDY    45  30  57 N17G25    30.30R
DECATUR        CLOUDY    43  31  62 N20       30.31R
HALEYVILLE       N/A     40  30  67 N10G20    30.33R WCI  33
GADSDEN        PTCLDY   N/A N/A N/A NW20G26   30.22R
$$

ALZ012-013-022-023-030>036-040>044-300600-
WEST CENTRAL ALABAMA

CITY           SKY/WX    TMP DP  RH WIND       PRES   REMARKS
TUSCALOOSA     PTCLDY    50  37  61 N20G28    30.28R
$$

ALZ015-024>027-033>036-040>044-300600-
CENTRAL ALABAMA

CITY           SKY/WX    TMP DP  RH WIND       PRES   REMARKS
BIRMINGHAM     MOCLDY    47  35  63 N20G30    30.26R
MONTGOMERY     MOCLDY    59  50  72 SW8       30.16S
SHELBY CO ARPT PTCLDY    53  41  63 NW14G23   30.21R
MAXWELL AFB    MOCLDY    59  51  75 W6        30.15R
GREENVILLE     FAIR      57  51  80 SW7       30.17R
$$

ALZ019-021-028-029-037-038-045>048-300600-
EAST CENTRAL ALABAMA

CITY           SKY/WX    TMP DP  RH WIND       PRES   REMARKS
ANNISTON       CLOUDY    53  40  61 W9G21     30.18R
ALEXANDER CITY CLOUDY    60  46  59 W3        30.14R
AUBURN         MOCLDY    55  45  67 SW9       30.16S
$$

ALZ051>064-300600-
SOUTHWEST ALABAMA

CITY           SKY/WX    TMP DP  RH WIND       PRES   REMARKS
MOBILE         PTCLDY    58  56  93 SW8       30.21S
BROOKLEY FIELD PTCLDY    62  57  83 SW8       30.21S
EVERGREEN      PTCLDY    57  53  86 W3        30.19R
$$

ALZ049-050-065>069-300600-
SOUTHEAST ALABAMA

CITY           SKY/WX    TMP DP  RH WIND       PRES   REMARKS
DOTHAN         PTCLDY    53  50  89 SW7       30.19F
OZARK          PTCLDY    52  49  90 S6        30.17F
TROY           MOCLDY    55  50  83 SW6       30.17S
EUFAULA        FAIR      57  51  80 SW6       30.13F
$$



USA.gov is the U.S. government's official web portal to all federal, state and local government web resources and services.